CZ-6A DEB, 54275

Orbit data source: Space-Track

CZ-6A DEB, 54275 is space debris in SSO originally from a launch on Fri, 11 Nov 2022 UTC launched from the Taiyaun Space Center, China (TSC). Debris objects in space refer to the collection of defunct objects orbiting the Earth. Examples of debris include non-operational satellites, rocket bodies, and fragments generated from explosions, collisions, or faulty payload assembly.

Loading next visibility...
Identifier
54275, 2022-151S
Orbit
SSO
Country
Flag of CNCN / PRC
Related business
Manufacturer
SAST
Mission
Spacecraft
Bus & Motor
Unknown
Mass
Unknown
Launch date (UTC)
2022-11-11 (3 years ago)
Launch vehicle
Unknown
Launch site
Taiyaun Space Center, China (TSC)
Object type
Payload
Rocket body
Debris
Shape & HBR
Unknown shape, 0.1 m
Radar Cross Section
Small (<0.1 m²)

Expand to show TLE details & history
Last TLE update: 9 hours ago

TLE from 9 hours ago
0 CZ-6A DEB
1 54275U 22151S   26130.22998288  .00005058  00000-0  79050-3 0  9996
2 54275  98.8151 228.8459 0078250  39.8243 320.8668 14.71258246184620
Epoch: 2026-05-10T05:31Z
TLE epoch observation values (Epoch: 2026-05-10T05:31:10.520Z)
Latitude
-0.00005°
Longitude
-81.98398°
Altitude
617.498 km
Speed
7.573 km/s
True Right ascension
15h 15m 23s
True Declination
0° 00' 00"
Sunlit
Object was in full shadow at epoch
Visualization orbit readout
Latitude
Unknown
Longitude
Unknown
Altitude
Unknown
Speed
Unknown
Apparent Right ascension
Unknown
Apparent Declination
Unknown
Sunlit
N/A
Visualization observer readout
Local Sidereal Time
22:58:48
Azimuth
Unknown
Elevation
Unknown
Doppler factor
Unknown
Orbital elements
Apogee altitude
709.177 km
Perigee altitude
599.122 km
Semi-major axis
7,032.287 km
Eccentricity
0.00783
Inclination
98.8151°
RAAN
228.8459°
Arg. of periapsis
39.8243°
True anomaly
320.29657°
Mean anomaly
320.8668°
Eccentric anomaly
320.58212°
Mean motion
3.68043 °/min
Orbital period
97.81 mins
BSTAR
0.0007905
Loading maneuver chart data...
Computing Atmospheric mass density...

Documentation

Showing up to 5 results
|